Skip Page Navigation
NASA JPL Caltech
NASA Logo - Jet Propulsion Laboratory + View the NASA Portal
+ Center for Near-Earth Object Studies
JPL Home Earth Solar System Stars & Galaxies Technology
JPL Solar System Dynamics
BODIES ORBITS EPHEMERIDES TOOLS PHYSICAL DATA DISCOVERY FAQ SITE MAP
IMPORTANT: The SSD Announcement email list is now available. Major changes are coming in the near future, including possible hostname and/or URL changes. To be notified of such changes, subscribe to this email list.

Please visit this page for more details.


JPL Small-Body Database Browser
Search: [ help ]  
212235 (2005 JY32)
Classification: Main-belt Asteroid          SPK-ID: 2212235
Ephemeris | Orbit Diagram | Orbital Elements | Mission Design | Physical Parameters | Discovery Circumstances | Close-Approach Data ]

[ show orbit diagram ]
Orbital Elements at Epoch 2458600.5 (2019-Apr-27.0) TDB
Reference: JPL 15 (heliocentric ecliptic J2000)
 Element Value Uncertainty (1-sigma)   Units 
e .1597767087530607 4.6585e-08  
a 2.565715182768928 2.1455e-08 au
q 2.155773655268351 1.235e-07 au
i 4.698950653339893 6.1596e-06 deg
node 129.7173259007835 7.8017e-05 deg
peri 113.8496543579415 8.2303e-05 deg
M 131.4605449415818 2.7622e-05 deg
tp 2458052.344191346750
(2017-Oct-25.84419135)
0.00011187 TDB
period 1501.105074551924
4.11
1.8829e-05
5.155e-08
d
yr
n .2398233182360395 3.0081e-09 deg/d
Q 2.975656710269505 2.4883e-08 au
  Orbit Determination Parameters
   # obs. used (total)      255  
   data-arc span      5799 days (15.88 yr)  
   first obs. used      2002-10-30  
   last obs. used      2018-09-15  
   planetary ephem.      DE431  
   SB-pert. ephem.      SB431-N16  
   condition code      0  
   norm. resid. RMS      .62914  
   source      ORB  
   producer      Otto Matic  
   solution date      2018-Oct-03 12:12:42  

Additional Information
 Earth MOID = 1.1477 au 
 Jupiter MOID = 2.05523 au 
 T_jup = 3.410 
[ show covariance matrix ]

Ephemeris | Orbit Diagram | Orbital Elements | Mission Design | Physical Parameters | Discovery Circumstances | Close-Approach Data ]

Physical Parameter Table
Parameter Symbol Value Units Sigma Reference Notes
absolute magnitude H 16.5   n/a MPO454524  

212235 (2005 JY32)          Discovered 2005-May-04 by Spacewatch at Kitt Peak
Reference: 20090409/Numbers.arcLast Updated: 2009-04-10

[ show close-approach data ]
Ephemeris | Orbit Diagram | Orbital Elements | Mission Design | Physical Parameters | Discovery Circumstances | Close-Approach Data ]
ABOUT SSD CREDITS/AWARDS PRIVACY/COPYRIGHT GLOSSARY LINKS
FirstGov
(server date/time)  
NASA Home Page
Site Manager:   Ryan S. Park
Webmaster  Alan B. Chamberlin